TimeMST,TemperatureF,Dew PointF,Humidity,Sea Level PressureIn,VisibilityMPH,Wind Direction,Wind SpeedMPH,Gust SpeedMPH,PrecipitationIn,Events,Conditions,WindDirDegrees,DateUTC
12:53 AM,57.9,48.0,70,29.74,10.0,SE,5.8,-,0.00,,Mostly Cloudy,140,2011-10-05 07:53:00
1:53 AM,57.9,44.1,60,29.73,10.0,South,5.8,-,N/A,,Clear,190,2011-10-05 08:53:00
2:53 AM,57.0,45.0,64,29.74,10.0,South,4.6,-,N/A,,Clear,190,2011-10-05 09:53:00
3:53 AM,55.9,44.1,64,29.75,10.0,Variable,3.5,-,N/A,,Overcast,0,2011-10-05 10:53:00
4:53 AM,55.9,43.0,62,29.75,10.0,SW,6.9,-,N/A,,Mostly Cloudy,230,2011-10-05 11:53:00
5:53 AM,55.4,42.8,63,29.89,10.0,SSW,4.6,-,N/A,,Clear,210,2011-10-05 12:53:00
6:53 AM,54.0,43.0,66,29.77,10.0,SSW,8.1,-,N/A,,Clear,200,2011-10-05 13:53:00
7:53 AM,55.9,42.1,60,29.76,10.0,SSW,3.5,-,N/A,,Clear,200,2011-10-05 14:53:00
8:53 AM,61.0,39.0,44,29.76,10.0,SSW,10.4,16.1,N/A,,Clear,200,2011-10-05 15:53:00
9:53 AM,60.1,41.0,49,29.77,10.0,SW,3.5,-,N/A,,Overcast,220,2011-10-05 16:53:00
10:53 AM,63.0,37.0,38,29.74,10.0,South,9.2,16.1,N/A,,Mostly Cloudy,180,2011-10-05 17:53:00
11:53 AM,64.4,33.8,32,29.84,10.0,SSW,9.2,-,N/A,,Overcast,200,2011-10-05 18:53:00
12:53 PM,66.9,37.9,34,29.67,10.0,South,12.7,24.2,N/A,,Overcast,170,2011-10-05 19:53:00
1:53 PM,69.1,34.0,27,29.63,10.0,South,16.1,26.5,N/A,,Mostly Cloudy,180,2011-10-05 20:53:00
2:53 PM,68.0,35.1,30,29.60,10.0,South,13.8,24.2,N/A,,Overcast,190,2011-10-05 21:53:00
3:53 PM,68.0,33.8,28,29.73,10.0,SSW,11.5,17.3,N/A,,Overcast,200,2011-10-05 22:53:00
4:53 PM,57.0,48.0,72,29.62,6.0,NW,9.2,-,0.02,Rain,Light Rain,310,2011-10-05 23:53:00
5:53 PM,55.0,48.0,77,29.62,7.0,WNW,3.5,-,0.02,Rain,Light Rain,300,2011-10-06 00:53:00
6:53 PM,55.0,48.0,77,29.61,10.0,Calm,Calm,-,0.03,Rain,Light Rain,0,2011-10-06 01:53:00
7:53 PM,55.0,48.9,80,29.59,10.0,Calm,Calm,-,N/A,,Overcast,0,2011-10-06 02:53:00
8:53 PM,55.0,48.0,77,29.57,10.0,Calm,Calm,-,N/A,,Overcast,0,2011-10-06 03:53:00
9:53 PM,55.0,48.9,80,29.53,10.0,NE,3.5,-,N/A,,Partly Cloudy,40,2011-10-06 04:53:00
10:53 PM,60.1,37.9,44,29.50,10.0,SSW,10.4,27.6,N/A,,Mostly Cloudy,210,2011-10-06 05:53:00
11:53 PM,60.1,37.0,42,29.44,10.0,South,10.4,17.3,N/A,,Overcast,180,2011-10-06 06:53:00